212  
FPUS82 KCHS 181527  
OPUCHS  
 
TEST   
..KCHS/KSAV GATEWAY OBSERVATIONS
 
TEST  
NATIONAL WEATHER SERVICE CHARLESTON SC  
1100 AM EDT THU OCT 18 2018  
 
NOTE: "FAIR" INDICATES FEW OR NO CLOUDS BELOW 12,000 FEET WITH NO  
SIGNIFICANT WEATHER AND/OR OBSTRUCTIONS TO VISIBILITY.  
 
SCZ050-WAZ558-NCZ071-TXZ119-213-PAZ071-DCZ001-FLZ074-172-MI076-  
NYZ176-178-MAZ016-IL014-TNZ027-NJZ106-GAZ044-MD014-181600-  
   
..GATEWAY OBSERVATIONS FOR CHARLESTON INTERNATIONAL
 
 
 
CITY SKY/WX TMP DP RH WIND PRES REMARKS  
CHAS AIRPORT PTSUNNY 67 47 48 NE15 30.34S  
SEATTLE MOCLDY 49 41 74 SE7 30.16R  
CHARLOTTE PTSUNNY 61 39 44 NE10 30.44R  
DALLAS DFW CLOUDY 59 51 75 NE9 30.39R  
DALLAS LOVE CLOUDY 61 52 72 E12 30.40R  
PHILLADELPHIA FAIR 47 25 42 NW12 30.41R  
WASH NATIONAL FAIR 53 29 39 N14G20 30.45F  
BALTIMORE FAIR 51 30 44 W14 30.43R  
MIAMI FAIR 85 75 72 E15 30.16R HX 93  
DETROIT FAIR 41 24 51 VRB3 30.54S  
NEWARK FAIR 47 21 35 NW17G25 30.36R  
LAGUARDIA FAIR 47 25 42 NW20G31 30.34S  
J F K FAIR 46 24 42 NW21G28 30.35R  
BOSTON LOGAN FAIR 44 17 33 NW20G29 30.21S  
FT. LAUDERDALE FAIR 84 78 82 E15 30.15R HX 95  
CHICAGO O'HARE FAIR 49 21 33 SW6 30.52S  
CHICAGO MIDWAY FAIR 48 26 42 W8 30.53S  
HOUSTON BUSH CLOUDY 61 57 87 NE9 30.28R  
HOUSTON HOBBY CLOUDY 62 55 77 NE10 30.26R  
NASHVILLE FAIR 52 37 56 NE10 30.51R  
ATLANTA FAIR 66 45 46 E12 30.36F  
 

 
 
GAZ044-118-TXZ119-213-NCZ071-DCZ001-MDZ014-506-PAZ021-071-NJZ106-  
NYZ176-178-MAZ106-OHZ011-021-055-MIZ076-KYZ091-ILZ014-INZ047-  
MNZ060-ONZ431-181600-  
   
..GATEWAY OBSERVATIONS FOR SAVANNAH INTERNATIONAL
 
 
 
CITY SKY/WX TMP DP RH WIND PRES REMARKS  
SAVANNAH ARPT FAIR 73 50 44 NE14 30.31S  
ATLANTA FAIR 66 45 46 E12 30.36F  
CHARLOTTE PTSUNNY 61 39 44 NE10 30.44R  
DALLAS DFW CLOUDY 59 51 75 NE9 30.39R  
HOUSTON BUSH CLOUDY 61 57 87 NE9 30.28R  
WASH NATIONAL FAIR 53 29 39 N14G20 30.45F  
WASH DULLES FAIR 51 29 42 NW15 30.46R  
BALTIMORE FAIR 51 30 44 W14 30.43R  
PHILADELPHIA FAIR 47 25 42 NW12 30.41R  
NEWARK FAIR 47 21 35 NW17G25 30.36R  
LAGUARDIA FAIR 47 25 42 NW20G31 30.34S  
J F K FAIR 46 24 42 NW21G28 30.35R  
BOSTON FAIR 44 17 33 NW20G29 30.21S  
PITTSBURG FAIR 43 28 55 N9 30.48R  
AKRON FAIR 43 27 53 NW9 30.50R  
CLEVELAND FAIR 45 28 51 N8 30.54R  
CINCINNATI FAIR 47 27 45 E9 30.54R  
COLUMBUS FAIR 43 28 55 CALM 30.55R  
DETROIT FAIR 41 24 51 VRB3 30.54S  
CHICAGO O'HARE FAIR 49 21 33 SW6 30.52S  
MINNEAPOLIS FAIR 48 32 53 S12G17 30.33F  
INDIANAPOLIS FAIR 47 30 51 CALM 30.56R  
TORONTO CANADA CLOUDY 37 27 65 W8 30.44S WCI 31  
 

 
 
 
CLICK HERE TO GO TO PREVIOUS BULLETINS.

The Nexlab SC Page
The Nexlab GA Page Main Text Page